EW5660 Weather Reports


Display with metric or nautical units.
time (UTC)temp
F
wind
direction
speed
MPH
gust
MPH
rain 1hr
in
rain 24hr
in
rain mn
in
humidity
%
barometer
mb
20180124033909 28 319 8.0 17.0 0.00 0.11 0.11 82 1014.6
20180124033325 28 298 10.0 16.0 0.00 0.11 0.11 82 1014.6
20180124032847 28 279 6.0 12.0 0.00 0.11 0.11 82 1014.6
20180124032402 28 300 8.0 16.0 0.00 0.11 0.11 82 1014.5
20180124031819 28 294 10.0 17.0 0.00 0.11 0.11 82 1014.5
20180124031341 28 288 6.0 15.0 0.00 0.11 0.11 82 1014.4
20180124030905 28 296 9.0 13.0 0.00 0.11 0.11 82 1014.3
20180124030315 28 283 6.0 14.0 0.00 0.11 0.11 82 1014.3
20180124025836 28 298 7.0 14.0 0.00 0.11 0.11 82 1014.1
20180124025335 28 305 7.0 13.0 0.00 0.11 0.11 82 1014.1
20180124024846 28 271 6.0 13.0 0.00 0.11 0.11 82 1014.0
20180124024410 28 290 8.0 13.0 0.00 0.11 0.11 82 1013.9
20180124023829 28 310 7.0 12.0 0.00 0.11 0.11 82 1013.8
20180124023338 28 306 6.0 11.0 0.00 0.11 0.11 82 1013.7
20180124022902 28 299 7.0 12.0 0.00 0.11 0.11 81 1013.5
20180124022319 28 304 6.0 12.0 0.00 0.11 0.11 81 1013.6
20180124021835 28 318 6.0 17.0 0.00 0.11 0.11 81 1013.5
20180124021347 28 309 10.0 20.0 0.00 0.11 0.11 81 1013.4
20180124020902 28 317 9.0 20.0 0.00 0.11 0.11 81 1013.6
20180124020321 28 295 8.0 17.0 0.00 0.11 0.11 82 1013.4
20180124015845 28 304 9.0 19.0 0.00 0.11 0.11 82 1013.2
20180124015348 28 296 11.0 19.0 0.00 0.11 0.11 82 1013.1
20180124014851 28 301 9.0 20.0 0.00 0.11 0.11 82 1013.0
20180124014404 28 301 13.0 20.0 0.00 0.11 0.11 81 1012.9
20180124013825 28 300 9.0 18.0 0.00 0.11 0.11 82 1012.8
20180124013347 28 311 10.0 19.0 0.00 0.11 0.11 82 1012.8
20180124012901 28 309 11.0 16.0 0.00 0.11 0.11 81 1012.7
20180124012317 28 298 8.0 16.0 0.00 0.11 0.11 82 1012.7
20180124011840 28 302 8.0 20.0 0.00 0.11 0.11 82 1012.5
20180124010824 29 297 11.0 17.0 0.00 0.11 0.11 83 1012.2
20180124010345 29 297 9.0 22.0 0.00 0.11 0.11 83 1012.2
20180124005903 29 281 13.0 23.0 0.00 0.11 0.11 83 1012.1
20180124005325 29 301 13.0 23.0 0.00 0.11 0.11 83 1011.9
20180124004844 29 281 10.0 20.0 0.00 0.13 0.11 84 1011.8
20180124004350 29 328 10.0 20.0 0.00 0.13 0.11 84 1011.9
20180124003911 29 286 9.0 15.0 0.00 0.13 0.11 85 1011.7
20180124003327 29 296 7.0 15.0 0.00 0.13 0.11 85 1011.7
20180124002848 29 297 9.0 17.0 0.00 0.13 0.11 85 1011.5
20180124001827 29 279 10.0 18.0 0.00 0.13 0.11 85 1011.3
20180124001344 29 296 12.0 18.0 0.00 0.13 0.11 85 1011.2
20180124000906 29 294 11.0 17.0 0.00 0.13 0.11 86 1011.1
20180124000314 29 293 9.0 20.0 0.00 0.13 0.11 85 1011.0
20180123235823 29 315 12.0 18.0 0.00 0.13 0.11 85 1010.9
20180123235347 29 282 12.0 20.0 0.00 0.13 0.11 85 1010.8
20180123234909 29 294 12.0 20.0 0.00 0.13 0.11 85 1010.7
20180123234325 29 277 11.0 22.0 0.00 0.13 0.11 86 1010.6
20180123233842 29 286 10.0 22.0 0.00 0.13 0.11 85 1010.5
20180123233402 29 259 9.0 21.0 0.00 0.13 0.11 85 1010.4
20180123232817 29 298 10.0 21.0 0.00 0.13 0.11 85 1010.2
20180123232340 29 282 13.0 21.0 0.00 0.13 0.11 85 1010.0
20180123231850 29 295 10.0 21.0 0.00 0.13 0.11 85 1009.9
20180123231408 29 291 10.0 21.0 0.00 0.13 0.11 85 1009.6
20180123230825 29 292 9.0 20.0 0.00 0.13 0.11 86 1009.5
20180123230348 30 281 10.0 20.0 0.00 0.13 0.11 87 1009.3
20180123225325 30 296 11.0 19.0 0.00 0.13 0.11 86 1008.9
20180123224846 30 296 5.0 15.0 0.00 0.13 0.11 86 1008.8
20180123224410 30 290 9.0 15.0 0.00 0.13 0.11 85 1008.7
20180123223818 30 304 10.0 19.0 0.00 0.13 0.11 85 1008.5
20180123223325 30 290 12.0 21.0 0.00 0.13 0.11 85 1008.3
20180123222845 30 274 10.0 21.0 0.00 0.13 0.11 85 1008.2
20180123222406 30 294 8.0 14.0 0.00 0.13 0.11 85 1008.0
20180123221820 30 275 9.0 21.0 0.00 0.13 0.11 84 1007.9
20180123221319 30 269 13.0 21.0 0.00 0.13 0.11 84 1007.8
20180123220838 30 289 9.0 17.0 0.00 0.13 0.11 84 1007.8
20180123215833 30 304 12.0 23.0 0.00 0.13 0.11 85 1007.5
20180123215354 30 292 14.0 27.0 0.00 0.13 0.11 85 1007.4
20180123214814 30 274 13.0 27.0 0.00 0.13 0.11 86 1007.3
20180123214338 30 294 14.0 24.0 0.00 0.13 0.11 87 1007.1
20180123213333 30 279 10.0 19.0 0.00 0.13 0.11 88 1006.8
20180123212851 30 287 11.0 19.0 0.00 0.13 0.11 88 1006.7
20180123212412 30 280 11.0 25.0 0.00 0.13 0.11 87 1006.6
20180123211819 30 288 11.0 25.0 0.00 0.13 0.11 87 1006.3
20180123211342 30 286 9.0 16.0 0.00 0.13 0.11 87 1006.1
20180123210905 31 287 8.0 17.0 0.00 0.13 0.11 88 1006.0
20180123210318 30 277 9.0 17.0 0.00 0.13 0.11 88 1005.8
20180123205833 30 290 11.0 23.0 0.00 0.13 0.11 88 1005.6
20180123205343 31 290 10.0 23.0 0.00 0.13 0.11 87 1005.5
20180123204843 31 292 13.0 22.0 0.00 0.13 0.11 87 1005.4
20180123204347 31 306 11.0 21.0 0.00 0.13 0.11 87 1005.2
20180123203901 31 269 12.0 22.0 0.00 0.13 0.11 87 1004.9
20180123203314 31 275 12.0 21.0 0.00 0.13 0.11 87 1004.7
20180123202837 31 277 9.0 19.0 0.00 0.13 0.11 87 1004.6
20180123202401 31 279 11.0 24.0 0.00 0.13 0.11 87 1004.4
20180123201817 31 290 11.0 21.0 0.00 0.13 0.11 87 1004.2
20180123201338 32 266 12.0 21.0 0.00 0.13 0.11 88 1004.0
20180123200848 32 271 10.0 18.0 0.00 0.13 0.11 88 1003.9
20180123200403 32 281 9.0 17.0 0.00 0.13 0.11 88 1003.8
20180123195819 32 284 9.0 20.0 0.00 0.13 0.11 89 1003.6
20180123195344 32 242 11.0 21.0 0.00 0.13 0.11 89 1003.4
20180123194913 32 284 13.0 21.0 0.00 0.13 0.11 88 1003.4
20180123194318 32 248 10.0 19.0 0.00 0.13 0.11 89 1003.2
20180123193838 32 273 10.0 19.0 0.00 0.13 0.11 89 1003.2
20180123193403 32 257 7.0 26.0 0.00 0.13 0.11 88 1003.0
20180123192813 32 279 15.0 26.0 0.00 0.13 0.11 88 1002.9
20180123192333 32 260 11.0 24.0 0.00 0.13 0.11 88 1002.8
20180123191858 32 251 15.0 24.0 0.00 0.13 0.11 89 1002.7
20180123191314 32 237 10.0 24.0 0.00 0.13 0.11 90 1002.5
20180123190834 32 276 16.0 24.0 0.00 0.13 0.11 90 1002.4
20180123190346 32 293 10.0 20.0 0.00 0.13 0.11 90 1002.3
20180123185333 32 282 9.0 16.0 0.00 0.13 0.11 90 1002.1
20180123184849 32 275 8.0 23.0 0.00 0.13 0.11 90 1002.0
20180123184406 32 229 13.0 23.0 0.00 0.13 0.11 89 1001.9
20180123183824 33 243 12.0 23.0 0.00 0.13 0.11 87 1001.8
20180123183346 33 308 12.0 23.0 0.00 0.13 0.11 86 1001.8
20180123182332 33 282 14.0 24.0 0.00 0.13 0.11 84 1001.7
20180123181843 34 260 11.0 22.0 0.00 0.13 0.11 83 1001.7
20180123181346 34 285 11.0 24.0 0.00 0.13 0.11 83 1001.4
20180123180901 34 255 12.0 23.0 0.00 0.13 0.11 83 1001.3
20180123180316 34 236 12.0 23.0 0.00 0.13 0.11 82 1001.2
20180123175826 34 238 13.0 23.0 0.00 0.13 0.11 82 1001.1
20180123175352 34 242 14.0 23.0 0.00 0.13 0.11 83 1001.0
20180123174911 35 187 10.0 28.0 0.00 0.14 0.11 83 1000.9
20180123174328 35 252 21.0 28.0 0.00 0.14 0.11 82 1000.7
20180123173851 35 257 11.0 24.0 0.00 0.14 0.11 83 1000.6
20180123172824 35 264 12.0 23.0 0.00 0.14 0.11 84 1000.6
20180123172347 35 240 15.0 23.0 0.00 0.14 0.11 83 1000.6
20180123171908 35 229 10.0 24.0 0.00 0.14 0.11 84 1000.6
20180123171313 36 227 12.0 27.0 0.00 0.14 0.11 84 1000.6
20180123170829 36 263 9.0 25.0 0.00 0.14 0.11 85 1000.6
20180123170353 36 250 9.0 18.0 0.00 0.14 0.11 85 1000.5
20180123165912 36 252 11.0 18.0 0.00 0.14 0.11 85 1000.4
20180123165327 36 226 8.0 17.0 0.00 0.14 0.11 86 1000.4
20180123164848 36 247 11.0 16.0 0.00 0.14 0.11 86 1000.3
20180123164410 36 227 8.0 18.0 0.00 0.14 0.11 86 1000.4
20180123163828 36 257 10.0 23.0 0.00 0.14 0.11 86 1000.5
20180123163350 36 250 14.0 23.0 0.00 0.14 0.11 86 1000.4
20180123162903 36 241 10.0 21.0 0.00 0.14 0.11 87 1000.5
20180123162316 36 260 13.0 21.0 0.00 0.14 0.11 88 1000.4
20180123161839 36 255 12.0 23.0 0.00 0.14 0.11 90 1000.3
20180123160825 36 240 12.0 22.0 0.00 0.14 0.11 91 1000.1
20180123160344 36 237 8.0 16.0 0.00 0.14 0.11 91 1000.1
20180123155912 36 248 8.0 18.0 0.00 0.14 0.11 91 999.9
20180123155331 36 244 12.0 18.0 0.00 0.14 0.11 91 999.9
20180123154852 36 238 8.0 12.0 0.00 0.19 0.11 92 999.8
20180123154405 36 242 8.0 15.0 0.00 0.19 0.11 92 999.8
20180123153816 36 225 8.0 18.0 0.00 0.19 0.11 92 999.7
20180123153338 36 238 10.0 18.0 0.00 0.19 0.11 92 999.6
20180123152322 36 234 7.0 13.0 0.00 0.19 0.11 92 999.5
20180123151839 36 225 8.0 13.0 0.00 0.19 0.11 92 999.5
20180123150829 36 224 8.0 16.0 0.00 0.19 0.11 92 999.4
20180123150339 36 218 9.0 13.0 0.00 0.19 0.11 92 999.3
20180123145857 36 229 6.0 13.0 0.00 0.19 0.11 92 999.3
20180123145316 36 227 7.0 19.0 0.00 0.19 0.11 92 999.3
20180123144838 36 243 9.0 19.0 0.00 0.24 0.11 92 999.4
20180123143820 36 229 6.0 15.0 0.00 0.24 0.11 93 999.4
20180123143340 35 245 6.0 15.0 0.00 0.24 0.11 93 999.4
20180123142334 35 243 8.0 13.0 0.00 0.24 0.11 93 999.3
20180123141850 35 227 7.0 15.0 0.00 0.24 0.11 93 999.3
20180123141407 35 225 7.0 14.0 0.01 0.24 0.11 93 999.2
20180123140820 35 232 6.0 14.0 0.01 0.24 0.11 93 999.3
20180123140342 35 238 8.0 14.0 0.01 0.24 0.11 93 999.2
20180123135326 35 198 7.0 15.0 0.01 0.24 0.11 93 999.2
20180123134843 35 222 5.0 12.0 0.01 0.25 0.11 93 999.2
20180123133833 35 227 8.0 14.0 0.01 0.25 0.11 93 999.2
20180123133346 35 221 6.0 14.0 0.01 0.25 0.11 93 999.2
20180123132859 36 213 8.0 18.0 0.01 0.25 0.11 93 999.2
20180123132315 36 232 8.0 18.0 0.01 0.25 0.11 93 999.2
20180123131835 36 234 6.0 15.0 0.02 0.25 0.11 92 999.2
20180123131354 36 234 5.0 15.0 0.01 0.24 0.10 92 999.2
20180123130814 36 227 7.0 14.0 0.01 0.24 0.10 92 999.2
20180123130336 36 223 5.0 15.0 0.01 0.24 0.10 92 999.3
20180123125858 36 237 7.0 19.0 0.01 0.24 0.10 92 999.3
20180123125314 36 232 8.0 19.0 0.01 0.24 0.10 92 999.2
20180123124824 36 232 7.0 14.0 0.01 0.27 0.10 92 999.2
20180123124338 36 243 8.0 14.0 0.01 0.27 0.10 91 999.1
20180123123331 37 190 5.0 11.0 0.01 0.27 0.10 91 999.1
20180123122845 37 225 6.0 13.0 0.01 0.27 0.10 90 999.2
20180123122403 37 225 7.0 14.0 0.01 0.27 0.10 90 999.1
20180123121820 37 230 8.0 14.0 0.00 0.26 0.09 89 999.2
20180123121343 37 233 8.0 15.0 0.00 0.26 0.09 89 999.1
20180123120345 38 219 7.0 15.0 0.00 0.26 0.09 87 999.1
20180123115332 38 232 5.0 14.0 0.00 0.26 0.09 86 998.9
20180123114854 38 232 9.0 14.0 0.00 0.34 0.09 86 998.8
20180123114412 38 224 3.0 13.0 0.00 0.34 0.09 86 998.8
20180123113821 38 236 5.0 13.0 0.00 0.34 0.09 86 998.7
20180123113343 38 242 5.0 13.0 0.00 0.34 0.09 86 998.6
20180123112906 38 227 5.0 13.0 0.00 0.34 0.09 86 998.6
20180123112317 38 236 6.0 13.0 0.00 0.34 0.09 86 998.6
20180123111838 38 236 5.0 14.0 0.00 0.34 0.09 86 998.6
20180123110827 38 242 4.0 15.0 0.00 0.34 0.09 87 998.4
20180123110350 39 227 6.0 15.0 0.00 0.34 0.09 87 998.4
20180123105907 38 211 5.0 14.0 0.00 0.34 0.09 88 998.3
20180123105321 39 219 6.0 14.0 0.00 0.34 0.09 88 998.1
20180123104840 39 227 4.0 14.0 0.00 0.48 0.09 88 998.0
20180123103827 39 246 4.0 9.0 0.00 0.48 0.09 88 998.0
20180123103345 39 221 2.0 7.0 0.00 0.48 0.09 88 997.9
20180123102909 39 236 2.0 7.0 0.00 0.48 0.09 88 997.9
20180123102325 39 219 1.0 6.0 0.00 0.48 0.09 89 997.9
20180123101844 39 208 2.0 6.0 0.00 0.48 0.09 89 997.9
20180123100833 39 203 0.0 5.0 0.00 0.48 0.09 88 997.9
20180123100357 39 196 1.0 6.0 0.00 0.48 0.09 88 997.9
20180123095813 39 207 1.0 6.0 0.00 0.48 0.09 88 997.9
20180123095339 39 203 2.0 6.0 0.00 0.48 0.09 87 997.9
20180123094329 39 231 1.0 5.0 0.00 0.48 0.09 86 997.7
20180123093851 39 212 0.0 2.0 0.00 0.48 0.09 86 997.7
20180123092829 40 200 1.0 6.0 0.00 0.48 0.09 86 998.0
20180123092350 40 204 2.0 6.0 0.00 0.48 0.09 86 998.1
20180123091911 40 214 0.0 7.0 0.00 0.48 0.09 85 998.2
20180123091358 40 228 1.0 7.0 0.00 0.48 0.09 85 998.0
20180123090908 40 237 1.0 9.0 0.00 0.48 0.09 85 997.9
20180123090318 40 236 2.0 9.0 0.00 0.48 0.09 85 997.8
20180123085836 40 235 1.0 9.0 0.00 0.48 0.09 85 997.9
20180123085357 41 231 1.0 10.0 0.00 0.48 0.09 84 997.8
20180123084813 41 243 4.0 12.0 0.00 0.48 0.09 84 997.7
20180123084336 41 236 4.0 12.0 0.00 0.48 0.09 85 997.8
20180123083325 41 255 1.0 16.0 0.00 0.48 0.09 85 997.9
20180123082844 42 238 3.0 16.0 0.00 0.48 0.09 86 998.0
20180123082351 42 221 2.0 7.0 0.00 0.48 0.09 87 998.2
20180123081333 42 241 2.0 6.0 0.00 0.48 0.09 87 998.0
20180123080856 42 245 3.0 6.0 0.00 0.48 0.09 87 997.9
20180123080403 43 241 0.0 0.0 0.00 0.48 0.09 88 997.9
20180123075854 43 244 0.0 0.0 0.00 0.48 0.09 89 997.8
20180123075357 43 244 0.0 2.0 0.00 0.48 0.09 88 997.8
20180123074814 43 261 0.0 11.0 0.00 0.48 0.09 88 997.7
20180123074338 44 261 1.0 11.0 0.00 0.48 0.09 89 997.5
20180123073847 44 250 1.0 13.0 0.00 0.48 0.09 89 997.7
20180123073400 44 244 3.0 13.0 0.00 0.48 0.09 89 997.8
20180123072816 44 239 4.0 13.0 0.00 0.48 0.09 89 997.8
20180123072338 44 261 2.0 18.0 0.00 0.48 0.09 89 997.9
20180123071852 45 235 8.0 17.0 0.00 0.48 0.09 89 997.8
20180123071404 45 261 6.0 19.0 0.00 0.48 0.09 89 997.7
20180123070825 45 267 8.0 19.0 0.00 0.48 0.09 91 997.6
20180123070346 45 236 7.0 14.0 0.00 0.48 0.09 92 997.7
20180123065901 45 250 3.0 10.0 0.00 0.48 0.09 93 997.6
20180123065320 45 244 3.0 7.0 0.02 0.48 0.09 93 997.5
20180123064841 45 233 3.0 7.0 0.04 0.48 0.09 93 997.5
20180123064318 45 241 0.0 7.0 0.07 0.48 0.09 93 997.2
20180123063829 45 231 0.0 7.0 0.08 0.48 0.09 94 997.2
20180123063315 46 242 0.0 8.0 0.09 0.48 0.09 94 997.0
20180123062823 46 244 3.0 8.0 0.09 0.48 0.09 95 997.1
20180123062332 46 232 1.0 6.0 0.09 0.48 0.09 95 997.1
20180123061820 46 228 2.0 6.0 0.09 0.48 0.09 95 997.3
20180123061329 46 231 0.0 0.0 0.09 0.48 0.09 96 997.5
20180123060816 46 225 0.0 7.0 0.09 0.48 0.09 96 997.5
20180123060328 46 226 2.0 11.0 0.09 0.48 0.09 96 997.5
20180123055817 46 233 3.0 15.0 0.09 0.48 0.09 96 997.8
20180123055327 47 221 5.0 17.0 0.07 0.46 0.07 96 998.0
20180123054813 47 229 7.0 17.0 0.03 0.42 0.03 97 998.1
20180123054321 46 190 6.0 9.0 0.01 0.40 0.01 96 997.8
20180123053830 46 175 6.0 9.0 0.00 0.39 0.00 96 997.4
20180123053318 46 182 6.0 10.0 0.00 0.39 0.00 96 997.2
20180123052826 46 149 6.0 10.0 0.00 0.39 0.00 96 996.8
20180123052314 46 139 5.0 9.0 0.00 0.39 0.00 96 996.7
20180123051827 46 147 5.0 7.0 0.00 0.39 0.00 96 996.7
20180123051315 47 150 4.0 7.0 0.00 0.39 0.00 96 996.8
20180123050824 46 150 2.0 5.0 0.00 0.39 0.00 96 996.7
20180123050332 46 150 0.0 9.0 0.00 0.39 0.00 96 996.7
20180123045821 46 153 5.0 9.0 0.00 0.39 0.00 96 996.9
20180123045331 46 154 5.0 11.0 0.00 0.39 0.00 96 997.3
20180123044818 46 149 8.0 11.0 0.00 0.39 0.39 96 997.8
20180123044401 46 155 8.0 9.0 0.00 0.39 0.39 96 997.8
20180123043815 47 144 6.0 10.0 0.00 0.39 0.39 96 997.6
20180123043337 47 141 6.0 10.0 0.00 0.39 0.39 96 997.9
20180123042315 46 157 6.0 7.0 0.00 0.39 0.39 95 998.2
20180123041838 47 158 2.0 6.0 0.00 0.39 0.39 96 998.1
20180123040834 47 153 6.0 8.0 0.00 0.39 0.39 96 998.4
20180123040357 47 153 6.0 8.0 0.00 0.39 0.39 96 998.4
20180123035814 47 153 6.0 8.0 0.00 0.39 0.39 96 998.4
20180123035340 47 155 5.0 7.0 0.00 0.39 0.39 96 998.5
20180123034902 47 156 5.0 7.0 0.00 0.39 0.39 95 998.5
20180123034318 48 153 5.0 6.0 0.00 0.39 0.39 96 998.5